AUA974 BIKF-LOWW

Flight info

Callsign AUA974
Flight time 3h 35m
Altitude 35000
Route OSKUM3A OSKUM DCT PEMOS/N0451F350 DCT ORVIK DCT LINVI DCT ALASA DCT LUWIL DCT BOLBO DCT OMELO DCT EVIKU DCT BITSI DCT MIKOV MIKOV8W
Aircraft A321/M-SDE3FGHIRWY/LB1

Departure

Time 2026-05-03 23:01
Airport Keflavik International Airport (BIKF)

Arrival

Time 2026-05-04 02:37
Airport Vienna International Airport (LOWW)
Time Latitude Longitude Altitude Speed Heading
2026-05-03 22:23 63.99327 -22.62154 142 ft 0 kts 270°
2026-05-03 22:45 63.99327 -22.62119 142 ft 4 kts 270°
2026-05-03 22:46 63.99327 -22.62058 142 ft 4 kts 270°
2026-05-03 22:46 63.99328 -22.62011 142 ft 4 kts 238°
2026-05-03 22:46 63.99347 -22.61987 142 ft 4 kts 181°
2026-05-03 22:46 63.99345 -22.61986 142 ft 4 kts 180°
2026-05-03 22:47 63.99338 -22.61986 142 ft 0 kts 180°
2026-05-03 22:49 63.99319 -22.61986 141 ft 5 kts 180°
2026-05-03 22:50 63.99281 -22.61986 142 ft 7 kts 180°
2026-05-03 22:50 63.99229 -22.61986 142 ft 8 kts 180°
2026-05-03 22:50 63.99180 -22.61934 142 ft 9 kts 121°
2026-05-03 22:50 63.99173 -22.61807 144 ft 7 kts 91°
2026-05-03 22:51 63.99173 -22.61716 146 ft 5 kts 90°
2026-05-03 22:51 63.99173 -22.61655 147 ft 3 kts 90°
2026-05-03 22:51 63.99173 -22.61584 149 ft 7 kts 90°
2026-05-03 22:51 63.99173 -22.61426 156 ft 13 kts 90°
2026-05-03 22:52 63.99174 -22.61265 156 ft 7 kts 90°
2026-05-03 22:52 63.99174 -22.61177 158 ft 5 kts 90°
2026-05-03 22:52 63.99174 -22.61089 160 ft 6 kts 90°
2026-05-03 22:52 63.99167 -22.60991 162 ft 6 kts 115°
2026-05-03 22:53 63.99126 -22.60942 165 ft 8 kts 170°
2026-05-03 22:53 63.99068 -22.60934 168 ft 9 kts 179°
2026-05-03 22:53 63.98995 -22.60937 170 ft 13 kts 181°
2026-05-03 22:53 63.98910 -22.60939 169 ft 12 kts 181°
2026-05-03 22:54 63.98821 -22.60941 166 ft 13 kts 180°
2026-05-03 22:54 63.98731 -22.60941 165 ft 12 kts 180°
2026-05-03 22:54 63.98655 -22.60941 166 ft 10 kts 180°
2026-05-03 22:54 63.98595 -22.60941 167 ft 7 kts 180°
2026-05-03 22:55 63.98549 -22.60941 168 ft 7 kts 180°
2026-05-03 22:55 63.98480 -22.60941 169 ft 12 kts 180°
2026-05-03 22:55 63.98385 -22.60940 166 ft 14 kts 180°
2026-05-03 22:55 63.98283 -22.60939 165 ft 17 kts 180°
2026-05-03 22:56 63.98159 -22.60939 166 ft 17 kts 180°
2026-05-03 22:56 63.98054 -22.60940 168 ft 14 kts 180°
2026-05-03 22:56 63.97968 -22.60941 169 ft 11 kts 180°
2026-05-03 22:56 63.97898 -22.60942 169 ft 9 kts 180°
2026-05-03 22:57 63.97836 -22.60942 170 ft 10 kts 180°
2026-05-03 22:57 63.97746 -22.60941 169 ft 16 kts 179°
2026-05-03 22:57 63.97617 -22.60937 168 ft 21 kts 180°
2026-05-03 22:57 63.97478 -22.60941 165 ft 20 kts 182°
2026-05-03 22:58 63.97345 -22.60944 163 ft 19 kts 179°
2026-05-03 22:58 63.97207 -22.60942 158 ft 20 kts 180°
2026-05-03 22:58 63.97084 -22.60941 153 ft 16 kts 179°
2026-05-03 22:58 63.96969 -22.60940 149 ft 17 kts 180°
2026-05-03 22:59 63.96846 -22.60941 145 ft 18 kts 180°
2026-05-03 22:59 63.96713 -22.60941 140 ft 20 kts 180°
2026-05-03 22:59 63.96575 -22.60941 135 ft 18 kts 180°
2026-05-03 22:59 63.96474 -22.60899 136 ft 12 kts 132°
2026-05-03 23:00 63.96460 -22.60782 138 ft 4 kts 94°
2026-05-03 23:00 63.96458 -22.60715 141 ft 6 kts 93°
2026-05-03 23:00 63.96469 -22.60574 144 ft 13 kts 54°
2026-05-03 23:00 63.96596 -22.60545 149 ft 33 kts
2026-05-03 23:01 63.97068 -22.60541 161 ft 100 kts 360°
2026-05-03 23:01 63.97945 -22.60544 171 ft 150 kts 360°
2026-05-03 23:01 63.99085 -22.60546 502 ft 167 kts 358°
2026-05-03 23:01 64.00259 -22.60569 1211 ft 170 kts 358°
2026-05-03 23:02 64.01475 -22.60498 1605 ft 184 kts
2026-05-03 23:02 64.02813 -22.60429 1971 ft 196 kts 358°
2026-05-03 23:02 64.04180 -22.60445 2697 ft 197 kts 358°
2026-05-03 23:02 64.05553 -22.60149 3376 ft 203 kts 20°
2026-05-03 23:03 64.06625 -22.57934 3851 ft 226 kts 60°
2026-05-03 23:03 64.06979 -22.54226 4156 ft 254 kts 86°
2026-05-03 23:03 64.06904 -22.50085 4756 ft 265 kts 94°
2026-05-03 23:03 64.06716 -22.45835 5461 ft 272 kts 94°
2026-05-03 23:04 64.06324 -22.41565 6168 ft 280 kts 111°
2026-05-03 23:04 64.05367 -22.37635 6806 ft 287 kts 123°
2026-05-03 23:04 64.04298 -22.33720 7444 ft 294 kts 120°
2026-05-03 23:04 64.03263 -22.29637 8086 ft 300 kts 119°
2026-05-03 23:05 64.02230 -22.25435 8725 ft 307 kts 118°
2026-05-03 23:05 64.01181 -22.21143 9347 ft 313 kts 118°
2026-05-03 23:05 64.00106 -22.16761 9970 ft 320 kts 119°
2026-05-03 23:05 63.98993 -22.12253 10291 ft 337 kts 119°
2026-05-03 23:06 63.97801 -22.07470 10430 ft 358 kts 119°
2026-05-03 23:06 63.96531 -22.02410 10564 ft 378 kts 120°
2026-05-03 23:06 63.95191 -21.97096 10754 ft 395 kts 120°
2026-05-03 23:06 63.93805 -21.91618 11177 ft 402 kts 120°
2026-05-03 23:07 63.92400 -21.86088 11718 ft 407 kts 120°
2026-05-03 23:07 63.90976 -21.80490 12241 ft 412 kts 120°
2026-05-03 23:07 63.89531 -21.74815 12757 ft 417 kts 120°
2026-05-03 23:07 63.88067 -21.69077 13257 ft 422 kts 121°
2026-05-03 23:08 63.86584 -21.63281 13754 ft 427 kts 121°
2026-05-03 23:08 63.85081 -21.57423 14200 ft 432 kts 121°
2026-05-03 23:08 63.83562 -21.51510 14631 ft 436 kts 121°
2026-05-03 23:08 63.82028 -21.45553 15104 ft 440 kts 121°
2026-05-03 23:09 63.80471 -21.39537 15517 ft 445 kts 121°
2026-05-03 23:09 63.78895 -21.33470 15942 ft 449 kts 121°
2026-05-03 23:09 63.77407 -21.27235 16338 ft 453 kts 114°
2026-05-03 23:09 63.76313 -21.20544 16717 ft 456 kts 104°
2026-05-03 23:10 63.75666 -21.13526 17093 ft 457 kts 95°
2026-05-03 23:10 63.75238 -21.06393 17430 ft 460 kts 95°
2026-05-03 23:10 63.74800 -20.99223 17818 ft 462 kts 95°
2026-05-03 23:10 63.74349 -20.92005 18186 ft 466 kts 95°
2026-05-03 23:11 63.73887 -20.84752 18502 ft 469 kts 95°
2026-05-03 23:11 63.73416 -20.77444 18818 ft 471 kts 95°
2026-05-03 23:11 63.72940 -20.70107 19135 ft 474 kts 95°
2026-05-03 23:11 63.72456 -20.62722 19453 ft 477 kts 95°
2026-05-03 23:12 63.71966 -20.55303 19772 ft 480 kts 96°
2026-05-03 23:12 63.71460 -20.47836 20085 ft 485 kts 96°
2026-05-03 23:12 63.70891 -20.40305 20374 ft 489 kts 97°
2026-05-03 23:12 63.70239 -20.32751 20691 ft 493 kts 99°
2026-05-03 23:13 63.69511 -20.25169 21012 ft 496 kts 100°
2026-05-03 23:13 63.68737 -20.17569 21337 ft 499 kts 101°
2026-05-03 23:13 63.67945 -20.09927 21662 ft 502 kts 101°
2026-05-03 23:13 63.67152 -20.02234 21998 ft 505 kts 101°
2026-05-03 23:14 63.66367 -19.94496 22319 ft 508 kts 100°
2026-05-03 23:14 63.65588 -19.86709 22663 ft 511 kts 100°
2026-05-03 23:14 63.64809 -19.78875 23009 ft 515 kts 100°
2026-05-03 23:14 63.64027 -19.70992 23346 ft 518 kts 100°
2026-05-03 23:15 63.63237 -19.63064 23674 ft 520 kts 100°
2026-05-03 23:15 63.62436 -19.55104 23909 ft 523 kts 100°
2026-05-03 23:15 63.61622 -19.47118 24161 ft 525 kts 100°
2026-05-03 23:15 63.60796 -19.39108 24426 ft 527 kts 101°
2026-05-03 23:16 63.60242 -19.33789 24597 ft 529 kts 101°
2026-05-03 23:16 63.59397 -19.25736 24854 ft 531 kts 101°
2026-05-03 23:16 63.58543 -19.17639 25136 ft 533 kts 101°
2026-05-03 23:16 63.57686 -19.09526 25421 ft 535 kts 101°
2026-05-03 23:17 63.56826 -19.01390 25686 ft 537 kts 101°
2026-05-03 23:17 63.55962 -18.93232 25900 ft 539 kts 101°
2026-05-03 23:17 63.55089 -18.85043 26146 ft 541 kts 101°
2026-05-03 23:17 63.54205 -18.76833 26394 ft 543 kts 102°
2026-05-03 23:18 63.53307 -18.68594 26636 ft 546 kts 102°
2026-05-03 23:18 63.52394 -18.60299 26810 ft 549 kts 102°
2026-05-03 23:18 63.51474 -18.51977 27021 ft 551 kts 102°
2026-05-03 23:18 63.50553 -18.43627 27230 ft 553 kts 102°
2026-05-03 23:19 63.49625 -18.35259 27430 ft 555 kts 102°
2026-05-03 23:19 63.48687 -18.26865 27631 ft 556 kts 102°
2026-05-03 23:19 63.47745 -18.18463 27820 ft 558 kts 102°
2026-05-03 23:19 63.46794 -18.10022 27996 ft 559 kts 102°
2026-05-03 23:20 63.45836 -18.01585 28167 ft 561 kts 102°
2026-05-03 23:20 63.44871 -17.93151 28412 ft 560 kts 102°
2026-05-03 23:20 63.43899 -17.84726 28733 ft 560 kts 102°
2026-05-03 23:20 63.42922 -17.76300 28880 ft 562 kts 102°
2026-05-03 23:21 63.41935 -17.67828 29027 ft 564 kts 102°
2026-05-03 23:21 63.40943 -17.59340 29201 ft 565 kts 102°
2026-05-03 23:21 63.39946 -17.50854 29408 ft 566 kts 102°
2026-05-03 23:21 63.38943 -17.42359 29624 ft 566 kts 103°
2026-05-03 23:22 63.36916 -17.25401 30045 ft 566 kts 103°
2026-05-03 23:22 63.35894 -17.16934 30234 ft 566 kts 103°
2026-05-03 23:22 63.34869 -17.08477 30443 ft 565 kts 103°
2026-05-03 23:23 63.33841 -17.00045 30606 ft 563 kts 103°
2026-05-03 23:23 63.32812 -16.91655 30940 ft 562 kts 103°
2026-05-03 23:23 63.31778 -16.83279 31118 ft 562 kts 103°
2026-05-03 23:23 63.30737 -16.74909 31334 ft 561 kts 103°
2026-05-03 23:24 63.29693 -16.66553 31546 ft 560 kts 103°
2026-05-03 23:24 63.28650 -16.58215 31794 ft 559 kts 103°
2026-05-03 23:24 63.27607 -16.49904 32019 ft 558 kts 103°
2026-05-03 23:24 63.26560 -16.41609 32248 ft 557 kts 103°
2026-05-03 23:25 63.25510 -16.33349 32491 ft 556 kts 103°
2026-05-03 23:25 63.24455 -16.25096 32727 ft 555 kts 103°
2026-05-03 23:25 63.23400 -16.16876 32961 ft 554 kts 103°
2026-05-03 23:25 63.22340 -16.08678 33192 ft 552 kts 103°
2026-05-03 23:26 63.21277 -16.00508 33424 ft 551 kts 103°
2026-05-03 23:26 63.20209 -15.92345 33654 ft 550 kts 103°
2026-05-03 23:26 63.19143 -15.84216 33880 ft 549 kts 103°
2026-05-03 23:26 63.18076 -15.76109 34082 ft 548 kts 103°
2026-05-03 23:27 63.17006 -15.68028 34239 ft 546 kts 104°
2026-05-03 23:27 63.15937 -15.60001 34494 ft 543 kts 104°
2026-05-03 23:27 63.14864 -15.52013 34708 ft 541 kts 104°
2026-05-03 23:27 63.13790 -15.44065 34891 ft 539 kts 104°
2026-05-03 23:28 63.11639 -15.28235 34977 ft 536 kts 104°
2026-05-03 23:28 63.09488 -15.12442 34976 ft 538 kts 104°
2026-05-03 23:29 63.07312 -14.96648 34977 ft 538 kts 104°
2026-05-03 23:29 63.05108 -14.80866 34975 ft 538 kts 104°
2026-05-03 23:30 63.02885 -14.65111 34977 ft 539 kts 104°
2026-05-03 23:30 63.00652 -14.49367 34985 ft 539 kts 104°
2026-05-03 23:31 62.98400 -14.33646 35002 ft 539 kts 104°
2026-05-03 23:31 62.96124 -14.17949 35002 ft 539 kts 104°
2026-05-03 23:32 62.93827 -14.02257 34993 ft 539 kts 105°
2026-05-03 23:32 62.91513 -13.86594 34992 ft 540 kts 105°
2026-05-03 23:33 62.89178 -13.70943 34990 ft 540 kts 105°
2026-05-03 23:33 62.86832 -13.55316 34990 ft 540 kts 105°
2026-05-03 23:34 62.84471 -13.39719 34980 ft 539 kts 105°
2026-05-03 23:34 62.82087 -13.24152 34975 ft 540 kts 105°
2026-05-03 23:35 62.79685 -13.08600 34976 ft 541 kts 105°
2026-05-03 23:35 62.77265 -12.93029 34989 ft 541 kts 105°
2026-05-03 23:36 62.74836 -12.77480 34993 ft 541 kts 105°
2026-05-03 23:36 62.72379 -12.61979 34983 ft 540 kts 105°
2026-05-03 23:37 62.69912 -12.46545 34965 ft 539 kts 106°
2026-05-03 23:37 62.67425 -12.31116 34963 ft 540 kts 106°
2026-05-03 23:38 62.64923 -12.15698 34972 ft 541 kts 106°
2026-05-03 23:38 62.62402 -12.00283 34971 ft 541 kts 106°
2026-05-03 23:39 62.59858 -11.84886 35010 ft 542 kts 106°
2026-05-03 23:39 62.57299 -11.69513 35002 ft 542 kts 107°
2026-05-03 23:40 62.54719 -11.54176 34997 ft 541 kts 107°
2026-05-03 23:40 62.52126 -11.38878 34990 ft 541 kts 107°
2026-05-03 23:41 62.49519 -11.23603 34988 ft 541 kts 107°
2026-05-03 23:41 62.46894 -11.08362 34986 ft 541 kts 107°
2026-05-03 23:42 62.44268 -10.93186 34965 ft 537 kts 108°
2026-05-03 23:42 62.41634 -10.78111 34966 ft 537 kts 108°
2026-05-03 23:43 62.38971 -10.63060 34970 ft 538 kts 108°
2026-05-03 23:43 62.36289 -10.47987 34975 ft 539 kts 108°
2026-05-03 23:44 62.33591 -10.32957 34982 ft 538 kts 108°
2026-05-03 23:44 62.30891 -10.17957 34968 ft 536 kts 109°
2026-05-03 23:45 62.28197 -10.03072 34956 ft 534 kts 109°
2026-05-03 23:45 62.25481 -9.88233 34961 ft 534 kts 109°
2026-05-03 23:46 62.22736 -9.73432 34962 ft 534 kts 109°
2026-05-03 23:46 62.19978 -9.58635 34963 ft 534 kts 109°
2026-05-03 23:47 62.17207 -9.43866 34971 ft 535 kts 110°
2026-05-03 23:47 62.14429 -9.29115 34972 ft 534 kts 110°
2026-05-03 23:48 62.11635 -9.14409 34974 ft 534 kts 110°
2026-05-03 23:48 62.08819 -8.99750 34968 ft 533 kts 110°
2026-05-03 23:49 62.05993 -8.85123 34966 ft 533 kts 110°
2026-05-03 23:49 62.03148 -8.70525 34966 ft 533 kts 111°
2026-05-03 23:50 62.00777 -8.58428 34955 ft 531 kts 111°
2026-05-03 23:50 61.97444 -8.41521 34950 ft 530 kts 111°
2026-05-03 23:51 61.94574 -8.27088 34941 ft 531 kts 111°
2026-05-03 23:51 61.91684 -8.12659 34959 ft 531 kts 111°
2026-05-03 23:52 61.88779 -7.98238 34950 ft 531 kts 111°
2026-05-03 23:52 61.85854 -7.83870 34952 ft 531 kts 112°
2026-05-03 23:53 61.82920 -7.69530 34938 ft 531 kts 112°
2026-05-03 23:53 61.79977 -7.55204 34943 ft 531 kts 112°
2026-05-03 23:54 61.77036 -7.41017 34936 ft 531 kts 112°
2026-05-03 23:54 61.74059 -7.26759 34940 ft 531 kts 112°
2026-05-03 23:55 61.71066 -7.12524 34925 ft 530 kts 112°
2026-05-03 23:55 61.68062 -6.98353 34950 ft 529 kts 113°
2026-05-03 23:56 61.65056 -6.84244 34952 ft 528 kts 113°
2026-05-03 23:56 61.62038 -6.70185 34959 ft 527 kts 113°
2026-05-03 23:57 61.59014 -6.56174 34956 ft 526 kts 114°
2026-05-03 23:57 61.56468 -6.44455 34960 ft 526 kts 114°
2026-05-03 23:58 61.53411 -6.30527 34977 ft 526 kts 114°
2026-05-03 23:58 61.50351 -6.16635 34972 ft 524 kts 114°
2026-05-03 23:59 61.47290 -6.02788 34966 ft 523 kts 115°
2026-05-03 23:59 61.44219 -5.88998 34958 ft 523 kts 115°
2026-05-04 00:00 61.41133 -5.75247 34960 ft 523 kts 115°
2026-05-04 00:00 61.38057 -5.61612 34955 ft 523 kts 115°
2026-05-04 00:01 61.34941 -5.47936 34968 ft 522 kts 115°
2026-05-04 00:01 61.31819 -5.34305 34961 ft 521 kts 116°
2026-05-04 00:02 61.28690 -5.20726 34959 ft 520 kts 116°
2026-05-04 00:02 61.25550 -5.07175 34956 ft 520 kts 116°
2026-05-04 00:03 61.22405 -4.93661 34904 ft 520 kts 116°
2026-05-04 00:03 61.19242 -4.80178 34947 ft 519 kts 116°
2026-05-04 00:04 61.16060 -4.66743 34954 ft 519 kts 117°
2026-05-04 00:04 61.12878 -4.53363 34954 ft 518 kts 117°
2026-05-04 00:05 61.09691 -4.40006 34955 ft 518 kts 117°
2026-05-04 00:05 61.06489 -4.26688 34952 ft 517 kts 117°
2026-05-04 00:06 61.03272 -4.13402 34972 ft 517 kts 118°
2026-05-04 00:06 61.00034 -4.00168 34961 ft 516 kts 118°
2026-05-04 00:07 60.96690 -3.87106 34925 ft 515 kts 120°
2026-05-04 00:07 60.93226 -3.74229 34934 ft 514 kts 120°
2026-05-04 00:08 60.89755 -3.61381 34940 ft 514 kts 120°
2026-05-04 00:08 60.86307 -3.48524 34942 ft 514 kts 120°
2026-05-04 00:09 60.82860 -3.35689 34959 ft 513 kts 121°
2026-05-04 00:09 60.79403 -3.22904 34957 ft 513 kts 121°
2026-05-04 00:10 60.75930 -3.10164 34948 ft 512 kts 121°
2026-05-04 00:10 60.72448 -2.97472 34950 ft 512 kts 121°
2026-05-04 00:11 60.68949 -2.84821 34916 ft 511 kts 121°
2026-05-04 00:11 60.65451 -2.72210 34931 ft 511 kts 121°
2026-05-04 00:12 60.61953 -2.59640 34951 ft 510 kts 121°
2026-05-04 00:12 60.58445 -2.47121 34950 ft 509 kts 122°
2026-05-04 00:13 60.54932 -2.34646 34946 ft 508 kts 122°
2026-05-04 00:13 60.51405 -2.22209 34943 ft 508 kts 122°
2026-05-04 00:14 60.47871 -2.09818 34934 ft 508 kts 122°
2026-05-04 00:14 60.44324 -1.97448 34892 ft 507 kts 122°
2026-05-04 00:15 60.40776 -1.85135 34928 ft 505 kts 122°
2026-05-04 00:15 60.37226 -1.72892 34938 ft 504 kts 122°
2026-05-04 00:16 60.33673 -1.60683 34936 ft 504 kts 123°
2026-05-04 00:16 60.30115 -1.48509 34935 ft 503 kts 123°
2026-05-04 00:17 60.26549 -1.36378 34931 ft 503 kts 123°
2026-05-04 00:17 60.22965 -1.24298 34936 ft 502 kts 123°
2026-05-04 00:18 60.19371 -1.12249 34933 ft 502 kts 123°
2026-05-04 00:18 60.15782 -1.00235 34890 ft 501 kts 123°
2026-05-04 00:19 60.12189 -0.88265 34915 ft 500 kts 123°
2026-05-04 00:19 60.08589 -0.76351 34920 ft 499 kts 123°
2026-05-04 00:20 60.04979 -0.64480 34927 ft 499 kts 124°
2026-05-04 00:20 60.01364 -0.52641 34928 ft 498 kts 124°
2026-05-04 00:21 59.97749 -0.40827 34926 ft 498 kts 124°
2026-05-04 00:21 59.94120 -0.29043 34927 ft 498 kts 124°
2026-05-04 00:22 59.90479 -0.17300 34923 ft 498 kts 124°
2026-05-04 00:22 59.86830 -0.05588 34907 ft 497 kts 124°
2026-05-04 00:23 59.83181 0.06090 34922 ft 497 kts 124°
2026-05-04 00:23 59.79517 0.17718 34931 ft 496 kts 124°
2026-05-04 00:24 59.75844 0.29297 34931 ft 495 kts 124°
2026-05-04 00:24 59.72175 0.40848 34931 ft 495 kts 124°
2026-05-04 00:25 59.68499 0.52371 34932 ft 495 kts 125°
2026-05-04 00:25 59.64809 0.63860 34929 ft 495 kts 125°
2026-05-04 00:26 59.61034 0.75193 34935 ft 493 kts 127°
2026-05-04 00:26 59.57114 0.86269 34917 ft 491 kts 128°
2026-05-04 00:27 59.53164 0.97250 34932 ft 490 kts 128°
2026-05-04 00:27 59.49251 1.08238 34934 ft 490 kts 127°
2026-05-04 00:28 59.45358 1.19232 34941 ft 489 kts 127°
2026-05-04 00:28 59.41454 1.30172 34940 ft 489 kts 128°
2026-05-04 00:29 59.37535 1.41060 34941 ft 488 kts 128°
2026-05-04 00:29 59.33613 1.51898 34950 ft 487 kts 128°
2026-05-04 00:30 59.29698 1.62702 34918 ft 486 kts 128°
2026-05-04 00:30 59.25786 1.73464 34943 ft 485 kts 128°
2026-05-04 00:31 59.21870 1.84181 34941 ft 484 kts 128°
2026-05-04 00:31 59.17938 1.94840 34960 ft 483 kts 129°
2026-05-04 00:32 59.14005 2.05454 34958 ft 482 kts 129°
2026-05-04 00:32 59.10089 2.16040 34959 ft 482 kts 129°
2026-05-04 00:33 59.04193 2.31838 34946 ft 481 kts 129°
2026-05-04 00:34 59.00256 2.42328 34913 ft 480 kts 129°
2026-05-04 00:34 58.96323 2.52784 34940 ft 480 kts 129°
2026-05-04 00:35 58.92378 2.63204 34949 ft 479 kts 129°
2026-05-04 00:35 58.88436 2.73569 34953 ft 478 kts 129°
2026-05-04 00:36 58.84492 2.83893 34958 ft 477 kts 130°
2026-05-04 00:36 58.80540 2.94187 34956 ft 477 kts 130°
2026-05-04 00:37 58.76590 3.04445 34965 ft 477 kts 130°
2026-05-04 00:37 58.72630 3.14685 34955 ft 476 kts 130°
2026-05-04 00:38 58.69333 3.23163 34963 ft 476 kts 130°
2026-05-04 00:38 58.65375 3.33323 34966 ft 475 kts 130°
2026-05-04 00:39 58.61414 3.43464 34968 ft 474 kts 130°
2026-05-04 00:39 58.56798 3.55191 34965 ft 474 kts 130°
2026-05-04 00:40 58.53469 3.63608 34960 ft 473 kts 131°
2026-05-04 00:40 58.49482 3.73640 34959 ft 473 kts 131°
2026-05-04 00:41 58.45494 3.83637 34962 ft 473 kts 131°
2026-05-04 00:41 58.41509 3.93606 34935 ft 472 kts 131°
2026-05-04 00:42 58.37518 4.03553 34945 ft 472 kts 131°
2026-05-04 00:42 58.33521 4.13459 34951 ft 472 kts 131°
2026-05-04 00:43 58.29521 4.23347 34948 ft 472 kts 131°
2026-05-04 00:43 58.25511 4.33209 34942 ft 471 kts 131°
2026-05-04 00:44 58.21493 4.43028 34953 ft 471 kts 131°
2026-05-04 00:44 58.17469 4.52818 34950 ft 471 kts 131°
2026-05-04 00:45 58.13447 4.62594 34951 ft 470 kts 131°
2026-05-04 00:45 58.09419 4.72354 34930 ft 470 kts 132°
2026-05-04 00:46 58.05396 4.82051 34948 ft 469 kts 132°
2026-05-04 00:46 58.01366 4.91722 34935 ft 468 kts 132°
2026-05-04 00:47 57.97337 5.01352 34943 ft 467 kts 132°
2026-05-04 00:47 57.93300 5.10942 34951 ft 467 kts 133°
2026-05-04 00:48 57.89260 5.20505 34940 ft 467 kts 133°
2026-05-04 00:48 57.85222 5.30042 34942 ft 466 kts 133°
2026-05-04 00:49 57.81175 5.39564 34929 ft 466 kts 133°
2026-05-04 00:49 57.77125 5.49038 34913 ft 466 kts 133°
2026-05-04 00:50 57.73066 5.58504 34917 ft 466 kts 133°
2026-05-04 00:50 57.68999 5.67946 34914 ft 466 kts 133°
2026-05-04 00:51 57.64957 5.77296 34914 ft 466 kts 133°
2026-05-04 00:51 57.60887 5.86699 34917 ft 466 kts 133°
2026-05-04 00:52 57.56800 5.96064 34919 ft 466 kts 133°
2026-05-04 00:52 57.52712 6.05410 34898 ft 465 kts 133°
2026-05-04 00:53 57.48623 6.14732 34888 ft 465 kts 134°
2026-05-04 00:53 57.44529 6.24010 34894 ft 464 kts 134°
2026-05-04 00:54 57.40431 6.33246 34909 ft 463 kts 134°
2026-05-04 00:54 57.36331 6.42461 34912 ft 463 kts 134°
2026-05-04 00:55 57.32237 6.51665 34910 ft 463 kts 134°
2026-05-04 00:55 57.28135 6.60843 34905 ft 462 kts 134°
2026-05-04 00:56 57.24026 6.69981 34902 ft 462 kts 134°
2026-05-04 00:56 57.19884 6.79139 34898 ft 462 kts 135°
2026-05-04 00:57 57.15801 6.88163 34875 ft 461 kts 134°
2026-05-04 00:57 57.11659 6.97285 34888 ft 461 kts 135°
2026-05-04 00:58 57.07567 7.06252 34887 ft 461 kts 135°
2026-05-04 00:58 57.03438 7.15243 34887 ft 460 kts 135°
2026-05-04 00:59 56.99116 7.23789 34893 ft 452 kts 146°
2026-05-04 00:59 56.94108 7.30629 34891 ft 449 kts 149°
2026-05-04 01:00 56.89058 7.37336 34870 ft 448 kts 149°
2026-05-04 01:00 56.84005 7.44020 34880 ft 448 kts 149°
2026-05-04 01:01 56.78954 7.50691 34884 ft 448 kts 149°
2026-05-04 01:01 56.73905 7.57358 34885 ft 448 kts 149°
2026-05-04 01:02 56.68858 7.64002 34881 ft 447 kts 150°
2026-05-04 01:02 56.63812 7.70611 34879 ft 447 kts 150°
2026-05-04 01:03 56.58763 7.77193 34864 ft 447 kts 150°
2026-05-04 01:03 56.53714 7.83763 34877 ft 447 kts 150°
2026-05-04 01:04 56.48660 7.90322 34876 ft 447 kts 150°
2026-05-04 01:04 56.43607 7.96852 34882 ft 447 kts 150°
2026-05-04 01:05 56.38542 8.03366 34890 ft 447 kts 150°
2026-05-04 01:05 56.33479 8.09851 34869 ft 446 kts 150°
2026-05-04 01:06 56.28417 8.16331 34851 ft 446 kts 150°
2026-05-04 01:06 56.23359 8.22790 34865 ft 446 kts 150°
2026-05-04 01:07 56.18287 8.29230 34859 ft 446 kts 150°
2026-05-04 01:07 56.13214 8.35648 34873 ft 446 kts 150°
2026-05-04 01:08 56.08142 8.42059 34876 ft 446 kts 150°
2026-05-04 01:08 56.03066 8.48460 34863 ft 446 kts 150°
2026-05-04 01:09 55.97988 8.54822 34842 ft 446 kts 150°
2026-05-04 01:09 55.92906 8.61175 34854 ft 446 kts 150°
2026-05-04 01:10 55.87822 8.67498 34848 ft 445 kts 150°
2026-05-04 01:10 55.82736 8.73803 34847 ft 446 kts 150°
2026-05-04 01:11 55.77653 8.80107 34840 ft 445 kts 151°
2026-05-04 01:11 55.72564 8.86385 34839 ft 445 kts 151°
2026-05-04 01:12 55.67469 8.92642 34839 ft 445 kts 151°
2026-05-04 01:12 55.62376 8.98885 34818 ft 445 kts 151°
2026-05-04 01:13 55.57291 9.05119 34836 ft 445 kts 151°
2026-05-04 01:13 55.52213 9.11311 34841 ft 444 kts 151°
2026-05-04 01:14 55.47123 9.17488 34841 ft 444 kts 152°
2026-05-04 01:14 55.42032 9.23631 34832 ft 443 kts 152°
2026-05-04 01:15 55.36942 9.29758 34839 ft 443 kts 152°
2026-05-04 01:15 55.31858 9.35877 34842 ft 443 kts 152°
2026-05-04 01:16 55.26776 9.41979 34815 ft 442 kts 152°
2026-05-04 01:16 55.21701 9.48045 34845 ft 441 kts 152°
2026-05-04 01:17 55.16641 9.54073 34857 ft 440 kts 152°
2026-05-04 01:17 55.11581 9.60084 34852 ft 439 kts 152°
2026-05-04 01:18 55.06530 9.66057 34845 ft 438 kts 152°
2026-05-04 01:18 55.01482 9.72010 34849 ft 438 kts 152°
2026-05-04 01:19 54.96433 9.77965 34846 ft 438 kts 152°
2026-05-04 01:19 54.91386 9.83885 34809 ft 438 kts 152°
2026-05-04 01:20 54.87190 9.88790 34821 ft 437 kts 152°
2026-05-04 01:20 54.82138 9.94688 34822 ft 437 kts 152°
2026-05-04 01:21 54.77070 10.00512 34839 ft 437 kts 153°
2026-05-04 01:21 54.71966 10.06212 34852 ft 437 kts 153°
2026-05-04 01:22 54.66856 10.11893 34862 ft 437 kts 153°
2026-05-04 01:22 54.61751 10.17575 34872 ft 437 kts 153°
2026-05-04 01:23 54.56646 10.23256 34860 ft 437 kts 153°
2026-05-04 01:23 54.51538 10.28926 34873 ft 437 kts 153°
2026-05-04 01:24 54.46433 10.34588 34863 ft 437 kts 153°
2026-05-04 01:24 54.41329 10.40232 34867 ft 436 kts 153°
2026-05-04 01:25 54.36215 10.45853 34875 ft 436 kts 154°
2026-05-04 01:25 54.31101 10.51449 34877 ft 436 kts 154°
2026-05-04 01:26 54.25990 10.57048 34872 ft 436 kts 153°
2026-05-04 01:26 54.20878 10.62637 34880 ft 436 kts 154°
2026-05-04 01:27 54.15763 10.68192 34863 ft 436 kts 154°
2026-05-04 01:27 54.10646 10.73725 34876 ft 435 kts 154°
2026-05-04 01:28 54.05527 10.79242 34885 ft 436 kts 154°
2026-05-04 01:28 54.00410 10.84762 34873 ft 436 kts 154°
2026-05-04 01:29 53.95289 10.90264 34876 ft 436 kts 154°
2026-05-04 01:29 53.90164 10.95754 34881 ft 436 kts 154°
2026-05-04 01:30 53.85036 11.01228 34890 ft 436 kts 154°
2026-05-04 01:30 53.79904 11.06678 34869 ft 435 kts 154°
2026-05-04 01:31 53.74773 11.12120 34883 ft 435 kts 154°
2026-05-04 01:31 53.69651 11.17547 34882 ft 435 kts 154°
2026-05-04 01:32 53.64526 11.22959 34892 ft 435 kts 154°
2026-05-04 01:32 53.59398 11.28350 34898 ft 435 kts 154°
2026-05-04 01:33 53.54269 11.33733 34899 ft 434 kts 154°
2026-05-04 01:33 53.49138 11.39106 34904 ft 434 kts 154°
2026-05-04 01:34 53.44007 11.44450 34878 ft 433 kts 154°
2026-05-04 01:34 53.38903 11.49831 34906 ft 433 kts 153°
2026-05-04 01:35 53.33852 11.55333 34914 ft 433 kts 152°
2026-05-04 01:35 53.28803 11.60833 34916 ft 433 kts 153°
2026-05-04 01:36 53.23742 11.66277 34922 ft 432 kts 153°
2026-05-04 01:36 53.18678 11.71682 34921 ft 432 kts 153°
2026-05-04 01:37 53.13617 11.77094 34910 ft 433 kts 153°
2026-05-04 01:37 53.08552 11.82502 34896 ft 432 kts 153°
2026-05-04 01:38 53.03497 11.87875 34926 ft 431 kts 153°
2026-05-04 01:38 52.98445 11.93215 34931 ft 430 kts 153°
2026-05-04 01:39 52.93402 11.98539 34938 ft 430 kts 153°
2026-05-04 01:39 52.88361 12.03847 34935 ft 429 kts 153°
2026-05-04 01:40 52.83322 12.09149 34937 ft 429 kts 153°
2026-05-04 01:40 52.78285 12.14441 34934 ft 429 kts 153°
2026-05-04 01:41 52.73237 12.19707 34920 ft 429 kts 153°
2026-05-04 01:41 52.68189 12.24956 34924 ft 429 kts 153°
2026-05-04 01:42 52.63141 12.30207 34921 ft 429 kts 153°
2026-05-04 01:42 52.58089 12.35451 34917 ft 429 kts 153°
2026-05-04 01:43 52.53035 12.40676 34922 ft 429 kts 153°
2026-05-04 01:43 52.47977 12.45886 34925 ft 429 kts 153°
2026-05-04 01:44 52.42915 12.51094 34927 ft 429 kts 153°
2026-05-04 01:44 52.37852 12.56284 34916 ft 430 kts 153°
2026-05-04 01:45 52.32778 12.61458 34906 ft 430 kts 154°
2026-05-04 01:45 52.25157 12.69205 34923 ft 430 kts 153°
2026-05-04 01:46 52.20076 12.74374 34919 ft 430 kts 153°
2026-05-04 01:46 52.14994 12.79528 34928 ft 430 kts 153°
2026-05-04 01:47 52.09907 12.84664 34931 ft 430 kts 154°
2026-05-04 01:47 52.04809 12.89788 34896 ft 431 kts 153°
2026-05-04 01:48 51.99693 12.94920 34909 ft 433 kts 153°
2026-05-04 01:48 51.94560 13.00067 34912 ft 434 kts 153°
2026-05-04 01:49 51.89414 13.05207 34918 ft 435 kts 153°
2026-05-04 01:49 51.84258 13.10332 34921 ft 435 kts 154°
2026-05-04 01:50 51.79099 13.15456 34960 ft 435 kts 154°
2026-05-04 01:50 51.73865 13.20345 34932 ft 434 kts 156°
2026-05-04 01:51 51.68572 13.25037 34944 ft 434 kts 156°
2026-05-04 01:51 51.63277 13.29748 34947 ft 435 kts 155°
2026-05-04 01:52 51.57990 13.34510 34945 ft 436 kts 155°
2026-05-04 01:52 51.52700 13.39277 34957 ft 436 kts 155°
2026-05-04 01:53 51.47403 13.44025 34942 ft 436 kts 155°
2026-05-04 01:53 51.42105 13.48765 34943 ft 436 kts 155°
2026-05-04 01:54 51.36800 13.53497 34939 ft 437 kts 155°
2026-05-04 01:54 51.31482 13.58220 34962 ft 437 kts 155°
2026-05-04 01:55 51.26160 13.62940 34969 ft 438 kts 155°
2026-05-04 01:55 51.20832 13.67664 34978 ft 438 kts 155°
2026-05-04 01:56 51.15499 13.72367 34984 ft 438 kts 155°
2026-05-04 01:56 51.10156 13.77055 34988 ft 439 kts 155°
2026-05-04 01:57 51.04813 13.81733 34989 ft 439 kts 155°
2026-05-04 01:57 50.99467 13.86417 34988 ft 439 kts 155°
2026-05-04 01:58 50.94125 13.91094 34987 ft 439 kts 155°
2026-05-04 01:58 50.88773 13.95744 34987 ft 439 kts 155°
2026-05-04 01:59 50.83508 14.00663 34983 ft 443 kts 146°
2026-05-04 01:59 50.78888 14.07186 34984 ft 446 kts 141°
2026-05-04 02:00 50.74310 14.13800 34980 ft 446 kts 142°
2026-05-04 02:00 50.70500 14.19281 34969 ft 446 kts 141°
2026-05-04 02:01 50.65162 14.26938 34979 ft 446 kts 141°
2026-05-04 02:01 50.61313 14.32445 34991 ft 446 kts 141°
2026-05-04 02:02 50.56717 14.39017 34995 ft 446 kts 141°
2026-05-04 02:02 50.52116 14.45574 34996 ft 446 kts 141°
2026-05-04 02:03 50.47507 14.52110 34987 ft 446 kts 141°
2026-05-04 02:03 50.42938 14.58717 34991 ft 447 kts 139°
2026-05-04 02:04 50.38490 14.65543 34986 ft 448 kts 138°
2026-05-04 02:04 50.34054 14.72392 34987 ft 448 kts 139°
2026-05-04 02:05 50.29577 14.79169 34988 ft 448 kts 139°
2026-05-04 02:05 50.25085 14.85909 34991 ft 448 kts 139°
2026-05-04 02:06 50.20588 14.92651 34989 ft 448 kts 139°
2026-05-04 02:06 50.16092 14.99379 34991 ft 448 kts 139°
2026-05-04 02:07 50.11588 15.06089 34994 ft 448 kts 139°
2026-05-04 02:07 50.07087 15.12803 34997 ft 448 kts 139°
2026-05-04 02:08 50.02581 15.19500 34991 ft 448 kts 139°
2026-05-04 02:08 49.98069 15.26180 34990 ft 448 kts 139°
2026-05-04 02:09 49.93552 15.32835 34990 ft 448 kts 139°
2026-05-04 02:09 49.89036 15.39482 34992 ft 447 kts 139°
2026-05-04 02:10 49.84521 15.46117 34995 ft 447 kts 139°
2026-05-04 02:10 49.80002 15.52741 34990 ft 447 kts 139°
2026-05-04 02:11 49.75478 15.59358 34979 ft 448 kts 138°
2026-05-04 02:11 49.70938 15.65974 34980 ft 449 kts 139°
2026-05-04 02:12 49.66386 15.72587 34989 ft 450 kts 139°
2026-05-04 02:12 49.61821 15.79198 34987 ft 450 kts 140°
2026-05-04 02:13 49.57247 15.85801 34999 ft 451 kts 140°
2026-05-04 02:13 49.52666 15.92407 34998 ft 451 kts 138°
2026-05-04 02:14 49.48079 15.99003 35017 ft 451 kts 138°
2026-05-04 02:14 49.43480 16.05590 35017 ft 452 kts 138°
2026-05-04 02:15 49.41179 16.08883 34817 ft 453 kts 138°
2026-05-04 02:15 49.38863 16.12188 33439 ft 456 kts 138°
2026-05-04 02:15 49.36514 16.15529 31490 ft 464 kts 138°
2026-05-04 02:15 49.34175 16.18857 30604 ft 448 kts 138°
2026-05-04 02:16 49.31916 16.21953 29962 ft 428 kts 142°
2026-05-04 02:16 49.29439 16.24565 28896 ft 437 kts 151°
2026-05-04 02:16 49.26723 16.26680 27916 ft 440 kts 156°
2026-05-04 02:16 49.23956 16.28706 27078 ft 440 kts 155°
2026-05-04 02:17 49.21216 16.30730 26494 ft 435 kts 155°
2026-05-04 02:17 49.18498 16.32748 25822 ft 432 kts 155°
2026-05-04 02:17 49.15804 16.34749 25172 ft 429 kts 155°
2026-05-04 02:17 49.13129 16.36733 24526 ft 426 kts 155°
2026-05-04 02:18 49.10476 16.38695 23884 ft 422 kts 155°
2026-05-04 02:18 49.07842 16.40633 23198 ft 419 kts 156°
2026-05-04 02:18 49.05238 16.42544 22590 ft 412 kts 156°
2026-05-04 02:18 49.02682 16.44419 22004 ft 404 kts 156°
2026-05-04 02:19 49.00172 16.46260 21447 ft 397 kts 156°
2026-05-04 02:19 48.97701 16.48068 20898 ft 392 kts 156°
2026-05-04 02:19 48.95251 16.49861 20380 ft 389 kts 156°
2026-05-04 02:19 48.92821 16.51640 19862 ft 386 kts 156°
2026-05-04 02:20 48.90411 16.53405 19376 ft 383 kts 156°
2026-05-04 02:20 48.88019 16.55151 18892 ft 380 kts 156°
2026-05-04 02:20 48.85648 16.56880 18452 ft 377 kts 156°
2026-05-04 02:20 48.83298 16.58591 17947 ft 374 kts 156°
2026-05-04 02:21 48.80959 16.60291 17494 ft 371 kts 156°
2026-05-04 02:21 48.78606 16.61861 17042 ft 367 kts 162°
2026-05-04 02:21 48.76112 16.62871 16766 ft 379 kts 170°
2026-05-04 02:21 48.73511 16.63708 16492 ft 384 kts 169°
2026-05-04 02:22 48.70899 16.64563 16216 ft 383 kts 169°
2026-05-04 02:22 48.68302 16.65424 15942 ft 382 kts 169°
2026-05-04 02:22 48.65718 16.66281 15662 ft 379 kts 169°
2026-05-04 02:22 48.63148 16.67131 15383 ft 378 kts 169°
2026-05-04 02:23 48.60576 16.67975 15109 ft 377 kts 169°
2026-05-04 02:23 48.58020 16.68811 14837 ft 374 kts 169°
2026-05-04 02:23 48.55476 16.69666 14570 ft 376 kts 168°
2026-05-04 02:23 48.52930 16.70581 14299 ft 376 kts 167°
2026-05-04 02:24 48.50400 16.71526 14011 ft 372 kts 168°
2026-05-04 02:24 48.47906 16.72446 13736 ft 362 kts 171°
2026-05-04 02:24 48.45534 16.72430 13443 ft 326 kts 197°
2026-05-04 02:24 48.43689 16.70868 13274 ft 292 kts 226°
2026-05-04 02:25 48.42729 16.68332 12820 ft 277 kts 257°
2026-05-04 02:25 48.42817 16.65446 12399 ft 279 kts 280°
2026-05-04 02:25 48.43241 16.62618 12001 ft 275 kts 285°
2026-05-04 02:25 48.44180 16.60151 11920 ft 279 kts 313°
2026-05-04 02:26 48.45756 16.58422 11851 ft 283 kts 331°
2026-05-04 02:26 48.47533 16.57115 11753 ft 284 kts 330°
2026-05-04 02:26 48.49299 16.55714 11251 ft 290 kts 334°
2026-05-04 02:26 48.51131 16.54512 10919 ft 285 kts 327°
2026-05-04 02:27 48.52561 16.52566 10326 ft 274 kts 301°
2026-05-04 02:27 48.53297 16.49991 9590 ft 265 kts 276°
2026-05-04 02:27 48.53248 16.47291 9021 ft 255 kts 253°
2026-05-04 02:27 48.52712 16.44748 8540 ft 254 kts 240°
2026-05-04 02:28 48.51574 16.42801 8061 ft 247 kts 212°
2026-05-04 02:28 48.49971 16.42006 7600 ft 244 kts 184°
2026-05-04 02:28 48.48305 16.42390 7187 ft 244 kts 166°
2026-05-04 02:28 48.46679 16.43086 6768 ft 242 kts 166°
2026-05-04 02:29 48.45064 16.43785 6346 ft 240 kts 166°
2026-05-04 02:29 48.43465 16.44471 5949 ft 236 kts 167°
2026-05-04 02:29 48.41942 16.45075 5870 ft 217 kts 167°
2026-05-04 02:29 48.40547 16.45656 5818 ft 202 kts 167°
2026-05-04 02:30 48.39207 16.46226 5762 ft 198 kts 166°
2026-05-04 02:30 48.37885 16.46790 5695 ft 197 kts 166°
2026-05-04 02:30 48.36586 16.47346 5508 ft 196 kts 166°
2026-05-04 02:30 48.35265 16.47910 5271 ft 194 kts 166°
2026-05-04 02:31 48.33974 16.48462 5026 ft 192 kts 166°
2026-05-04 02:31 48.32685 16.49012 4782 ft 194 kts 167°
2026-05-04 02:31 48.31383 16.49568 4523 ft 194 kts 167°
2026-05-04 02:31 48.30090 16.50119 4263 ft 192 kts 167°
2026-05-04 02:32 48.28823 16.50660 4013 ft 191 kts 167°
2026-05-04 02:32 48.27542 16.51206 3759 ft 184 kts 166°
2026-05-04 02:32 48.26368 16.51707 3524 ft 172 kts 167°
2026-05-04 02:32 48.25273 16.52174 3313 ft 155 kts 167°
2026-05-04 02:33 48.24296 16.52590 3108 ft 141 kts 167°
2026-05-04 02:33 48.23363 16.52986 2922 ft 137 kts 167°
2026-05-04 02:33 48.22454 16.53372 2747 ft 135 kts 168°
2026-05-04 02:33 48.21556 16.53753 2572 ft 134 kts 168°
2026-05-04 02:34 48.20661 16.54133 2395 ft 133 kts 168°
2026-05-04 02:34 48.19773 16.54510 2218 ft 133 kts 168°
2026-05-04 02:34 48.18887 16.54886 2050 ft 132 kts 167°
2026-05-04 02:34 48.18005 16.55261 1870 ft 132 kts 167°
2026-05-04 02:35 48.17123 16.55634 1694 ft 132 kts 168°
2026-05-04 02:35 48.16239 16.56010 1507 ft 132 kts 166°
2026-05-04 02:35 48.15347 16.56388 1329 ft 132 kts 165°
2026-05-04 02:35 48.14455 16.56766 1150 ft 134 kts 163°
2026-05-04 02:36 48.13568 16.57142 984 ft 130 kts 163°
2026-05-04 02:36 48.12705 16.57507 803 ft 129 kts 162°
2026-05-04 02:36 48.11839 16.57874 634 ft 129 kts 161°
2026-05-04 02:36 48.11073 16.58199 619 ft 89 kts 165°
2026-05-04 02:37 48.10649 16.58379 620 ft 42 kts 163°
2026-05-04 02:37 48.10389 16.58472 620 ft 34 kts 179°
2026-05-04 02:37 48.10196 16.58425 615 ft 23 kts 195°
2026-05-04 02:37 48.10145 16.58398 615 ft 6 kts 208°
2026-05-04 02:38 48.10114 16.58354 619 ft 6 kts 236°
2026-05-04 02:38 48.10098 16.58292 616 ft 6 kts 254°
2026-05-04 02:38 48.10100 16.58213 618 ft 11 kts 296°
2026-05-04 02:38 48.10198 16.58153 618 ft 19 kts 346°
2026-05-04 02:39 48.10317 16.58100 623 ft 16 kts 342°
2026-05-04 02:39 48.10423 16.58055 617 ft 15 kts 346°
2026-05-04 02:39 48.10521 16.58016 615 ft 14 kts 344°
2026-05-04 02:39 48.10611 16.57978 617 ft 13 kts 344°
2026-05-04 02:40 48.10707 16.57937 622 ft 18 kts 344°
2026-05-04 02:40 48.10832 16.57883 618 ft 18 kts 344°
2026-05-04 02:40 48.10950 16.57833 616 ft 17 kts 344°
2026-05-04 02:40 48.11063 16.57785 618 ft 16 kts 345°
2026-05-04 02:41 48.11157 16.57709 617 ft 15 kts 305°
2026-05-04 02:41 48.11202 16.57575 615 ft 14 kts 296°
2026-05-04 02:41 48.11244 16.57451 620 ft 13 kts 296°
2026-05-04 02:41 48.11282 16.57336 615 ft 12 kts 296°
2026-05-04 02:42 48.11308 16.57257 612 ft 15 kts 296°
2026-05-04 02:42 48.11385 16.57019 614 ft 19 kts 296°
2026-05-04 02:42 48.11423 16.56909 613 ft 15 kts 304°
2026-05-04 02:42 48.11511 16.56903 613 ft 13 kts 22°
2026-05-04 02:43 48.11589 16.56882 616 ft 11 kts 311°
2026-05-04 02:43 48.11624 16.56782 616 ft 9 kts 296°
2026-05-04 02:43 48.11655 16.56748 614 ft 1 kts
2026-05-04 02:43 48.11660 16.56755 616 ft 2 kts 31°
2026-05-04 02:44 48.11673 16.56765 613 ft 3 kts 26°
2026-05-04 02:44 48.11690 16.56777 621 ft 3 kts 25°
2026-05-04 02:44 48.11705 16.56787 621 ft 2 kts 25°
2026-05-04 02:44 48.11705 16.56788 621 ft 0 kts 25°